Location: Bou Ouachlou
(32.7770°N, 5.6009°W)
Time: 17:50:34
(UTC+00:00)

Cosmos 2228 Rocket - Pass Details

Date: 07 June 2020
Orbit: 619 x 651 km, 82.5° (Epoch: 04 July)

Event Time Altitude Azimuth Distance (km) Brightness Sun altitude
Rises 04:26:27 0° 356° (N) 2,947 7.0 -9.4°
Reaches altitude 10° 04:28:42 10° 359° (N) 2,039 6.2 -9.0°
Maximum altitude 04:33:13 69° 83° (E) 692 3.5 -8.2°
Drops below altitude 10° 04:37:44 10° 167° (SSE) 2,042 5.5 -7.4°
Sets 04:40:00 0° 169° (S) 2,951 6.3 -7.0°
